PAA8PZ LRTR-LROP

Flight info

Callsign PAA8PZ
Flight time 0h 35m
Altitude 25000
Route DITAX DCT LAMIT DCT TOSVI
Aircraft L101/H-SDFGHIRWXY/S

Departure

Time 2026-05-07 21:41
Airport Timișoara Traian Vuia International Airport (LRTR)

Arrival

Time 2026-05-07 22:16
Airport Bucharest Henri Coandă International Airport (LROP)
Time Latitude Longitude Altitude Speed Heading
2026-05-07 21:19 45.81014 21.32373 319 ft 0 kts 313°
2026-05-07 21:36 45.81016 21.32371 347 ft 1 kts 316°
2026-05-07 21:36 45.81023 21.32367 347 ft 0 kts 347°
2026-05-07 21:36 45.81035 21.32372 356 ft 3 kts 25°
2026-05-07 21:36 45.81051 21.32399 357 ft 5 kts 52°
2026-05-07 21:37 45.81077 21.32454 355 ft 8 kts 62°
2026-05-07 21:37 45.81083 21.32543 356 ft 10 kts 106°
2026-05-07 21:37 45.81055 21.32653 356 ft 13 kts 111°
2026-05-07 21:37 45.81022 21.32785 355 ft 15 kts 109°
2026-05-07 21:38 45.81012 21.32833 354 ft 0 kts 82°
2026-05-07 21:38 45.81014 21.32836 354 ft 1 kts 70°
2026-05-07 21:38 45.81017 21.32839 353 ft 1 kts 43°
2026-05-07 21:38 45.81021 21.32839 351 ft 1 kts 16°
2026-05-07 21:39 45.81025 21.32838 350 ft 0 kts 357°
2026-05-07 21:39 45.81026 21.32838 350 ft 0 kts 355°
2026-05-07 21:39 45.81487 21.31780 353 ft 0 kts 109°
2026-05-07 21:40 45.81483 21.31793 349 ft 4 kts 109°
2026-05-07 21:40 45.81376 21.32220 353 ft 95 kts 109°
2026-05-07 21:40 45.81055 21.33533 438 ft 173 kts 109°
2026-05-07 21:41 45.80656 21.35176 1538 ft 182 kts 110°
2026-05-07 21:41 45.80213 21.37100 2254 ft 222 kts 111°
2026-05-07 21:41 45.79710 21.39323 3033 ft 242 kts 111°
2026-05-07 21:41 45.79134 21.41830 3282 ft 284 kts 111°
2026-05-07 21:42 45.78483 21.44623 3992 ft 302 kts 111°
2026-05-07 21:42 45.77656 21.47321 5399 ft 287 kts 126°
2026-05-07 21:42 45.76345 21.49313 7038 ft 265 kts 141°
2026-05-07 21:42 45.75109 21.51258 8360 ft 269 kts 127°
2026-05-07 21:43 45.74191 21.53717 9058 ft 297 kts 115°
2026-05-07 21:43 45.73448 21.56660 9513 ft 327 kts 110°
2026-05-07 21:43 45.72731 21.59789 10559 ft 331 kts 110°
2026-05-07 21:43 45.71959 21.62963 11377 ft 347 kts 111°
2026-05-07 21:44 45.71104 21.66306 11599 ft 378 kts 112°
2026-05-07 21:44 45.70152 21.69983 11777 ft 408 kts 112°
2026-05-07 21:44 45.69159 21.73850 12587 ft 415 kts 111°
2026-05-07 21:44 45.68189 21.77674 14155 ft 403 kts 111°
2026-05-07 21:45 45.67240 21.81418 15365 ft 402 kts 112°
2026-05-07 21:45 45.66258 21.85263 15856 ft 422 kts 112°
2026-05-07 21:45 45.65224 21.89274 16492 ft 434 kts 112°
2026-05-07 21:45 45.64189 21.93299 17901 ft 426 kts 112°
2026-05-07 21:46 45.63170 21.97275 19050 ft 428 kts 113°
2026-05-07 21:46 45.62117 22.01349 19504 ft 447 kts 113°
2026-05-07 21:46 45.61020 22.05563 20199 ft 456 kts 113°
2026-05-07 21:46 45.59928 22.09778 21555 ft 450 kts 113°
2026-05-07 21:47 45.58834 22.14003 22533 ft 458 kts 113°
2026-05-07 21:47 45.57702 22.18346 23025 ft 475 kts 114°
2026-05-07 21:47 45.56557 22.22726 24078 ft 474 kts 114°
2026-05-07 21:47 45.55413 22.27114 24918 ft 465 kts 114°
2026-05-07 21:48 45.54323 22.31322 25001 ft 442 kts 114°
2026-05-07 21:48 45.53268 22.35382 25010 ft 433 kts 114°
2026-05-07 21:48 45.52215 22.39397 25038 ft 430 kts 114°
2026-05-07 21:48 45.51167 22.43374 25052 ft 429 kts 114°
2026-05-07 21:49 45.50114 22.47364 25062 ft 428 kts 114°
2026-05-07 21:49 45.49064 22.51344 25072 ft 428 kts 114°
2026-05-07 21:49 45.48012 22.55318 25072 ft 429 kts 114°
2026-05-07 21:49 45.46968 22.59258 25070 ft 428 kts 114°
2026-05-07 21:50 45.45915 22.63224 25072 ft 428 kts 114°
2026-05-07 21:50 45.44857 22.67204 25074 ft 428 kts 114°
2026-05-07 21:50 45.43803 22.71163 25062 ft 428 kts 114°
2026-05-07 21:50 45.42744 22.75130 25069 ft 429 kts 113°
2026-05-07 21:51 45.41686 22.79096 25074 ft 429 kts 114°
2026-05-07 21:51 45.40622 22.83070 25076 ft 429 kts 114°
2026-05-07 21:51 45.39559 22.87038 25075 ft 429 kts 114°
2026-05-07 21:51 45.38492 22.91014 25079 ft 430 kts 114°
2026-05-07 21:52 45.37424 22.94989 25080 ft 429 kts 114°
2026-05-07 21:52 45.36357 22.98950 25080 ft 429 kts 114°
2026-05-07 21:52 45.35283 23.02931 25080 ft 430 kts 114°
2026-05-07 21:52 45.34213 23.06886 25098 ft 429 kts 113°
2026-05-07 21:53 45.33143 23.10842 25080 ft 427 kts 113°
2026-05-07 21:53 45.32079 23.14774 25081 ft 426 kts 113°
2026-05-07 21:53 45.31012 23.18707 25079 ft 426 kts 113°
2026-05-07 21:53 45.29945 23.22634 25085 ft 426 kts 113°
2026-05-07 21:54 45.28879 23.26551 25093 ft 426 kts 113°
2026-05-07 21:54 45.27808 23.30483 25077 ft 426 kts 113°
2026-05-07 21:54 45.26736 23.34406 25078 ft 426 kts 113°
2026-05-07 21:54 45.25666 23.38321 25095 ft 425 kts 113°
2026-05-07 21:55 45.24606 23.42193 25073 ft 426 kts 113°
2026-05-07 21:55 45.23533 23.46106 25087 ft 426 kts 113°
2026-05-07 21:55 45.22454 23.50030 25074 ft 426 kts 113°
2026-05-07 21:55 45.21377 23.53943 25074 ft 426 kts 113°
2026-05-07 21:56 45.20296 23.57860 25087 ft 426 kts 114°
2026-05-07 21:56 45.19213 23.61780 25077 ft 425 kts 114°
2026-05-07 21:56 45.18143 23.65646 25079 ft 426 kts 114°
2026-05-07 21:56 45.17060 23.69553 25083 ft 426 kts 114°
2026-05-07 21:57 45.15976 23.73456 25078 ft 426 kts 113°
2026-05-07 21:57 45.14884 23.77381 25085 ft 427 kts 113°
2026-05-07 21:57 45.13794 23.81298 25085 ft 427 kts 113°
2026-05-07 21:57 45.12706 23.85205 25087 ft 428 kts 113°
2026-05-07 21:58 45.11611 23.89130 25082 ft 427 kts 113°
2026-05-07 21:58 45.10516 23.93048 25078 ft 428 kts 113°
2026-05-07 21:58 45.09422 23.96955 25078 ft 428 kts 113°
2026-05-07 21:58 45.08322 24.00879 25077 ft 428 kts 113°
2026-05-07 21:59 45.07229 24.04768 25075 ft 428 kts 113°
2026-05-07 21:59 45.06132 24.08670 25076 ft 427 kts 114°
2026-05-07 21:59 45.05036 24.12561 25066 ft 426 kts 114°
2026-05-07 21:59 45.03937 24.16452 25072 ft 425 kts 114°
2026-05-07 22:00 45.02838 24.20340 25074 ft 425 kts 114°
2026-05-07 22:00 45.01738 24.24219 25074 ft 425 kts 114°
2026-05-07 22:00 45.00635 24.28105 25064 ft 426 kts 114°
2026-05-07 22:00 44.99528 24.32004 25069 ft 426 kts 114°
2026-05-07 22:01 44.98425 24.35880 25062 ft 426 kts 114°
2026-05-07 22:01 44.97311 24.39786 24652 ft 434 kts 114°
2026-05-07 22:01 44.96184 24.43729 24145 ft 438 kts 114°
2026-05-07 22:01 44.95044 24.47716 23652 ft 437 kts 114°
2026-05-07 22:02 44.93906 24.51690 23084 ft 435 kts 114°
2026-05-07 22:02 44.92774 24.55636 22521 ft 432 kts 114°
2026-05-07 22:02 44.91648 24.59555 21969 ft 428 kts 114°
2026-05-07 22:02 44.90533 24.63430 21412 ft 424 kts 114°
2026-05-07 22:03 44.89428 24.67264 20855 ft 420 kts 114°
2026-05-07 22:03 44.88332 24.71063 20309 ft 417 kts 114°
2026-05-07 22:03 44.87241 24.74838 19768 ft 413 kts 114°
2026-05-07 22:03 44.86162 24.78567 19244 ft 409 kts 114°
2026-05-07 22:04 44.85090 24.82265 18745 ft 405 kts 114°
2026-05-07 22:04 44.84028 24.85925 18266 ft 402 kts 114°
2026-05-07 22:04 44.82988 24.89507 17760 ft 399 kts 114°
2026-05-07 22:04 44.81938 24.93117 17220 ft 396 kts 114°
2026-05-07 22:05 44.80897 24.96692 16705 ft 393 kts 114°
2026-05-07 22:05 44.79861 25.00245 16199 ft 390 kts 115°
2026-05-07 22:05 44.78832 25.03769 15702 ft 387 kts 115°
2026-05-07 22:05 44.77812 25.07260 15195 ft 384 kts 115°
2026-05-07 22:06 44.76798 25.10729 14642 ft 381 kts 115°
2026-05-07 22:06 44.75795 25.14154 14035 ft 376 kts 115°
2026-05-07 22:06 44.74800 25.17544 13398 ft 372 kts 115°
2026-05-07 22:06 44.73813 25.20901 12750 ft 369 kts 115°
2026-05-07 22:07 44.72849 25.24178 12240 ft 366 kts 115°
2026-05-07 22:07 44.71876 25.27477 11768 ft 364 kts 115°
2026-05-07 22:07 44.70908 25.30755 11265 ft 362 kts 115°
2026-05-07 22:07 44.69931 25.34060 10771 ft 360 kts 115°
2026-05-07 22:08 44.68989 25.37247 10299 ft 355 kts 115°
2026-05-07 22:08 44.68066 25.40373 9813 ft 338 kts 115°
2026-05-07 22:08 44.67190 25.43351 9358 ft 321 kts 115°
2026-05-07 22:08 44.66351 25.46195 8919 ft 308 kts 115°
2026-05-07 22:09 44.65545 25.48924 8473 ft 297 kts 115°
2026-05-07 22:09 44.64765 25.51553 8048 ft 289 kts 115°
2026-05-07 22:09 44.63988 25.54164 7626 ft 289 kts 115°
2026-05-07 22:09 44.63213 25.56761 7252 ft 287 kts 115°
2026-05-07 22:10 44.62444 25.59340 6894 ft 287 kts 115°
2026-05-07 22:10 44.61678 25.61907 6522 ft 282 kts 115°
2026-05-07 22:10 44.60933 25.64412 6167 ft 274 kts 115°
2026-05-07 22:10 44.60208 25.66843 5813 ft 273 kts 115°
2026-05-07 22:11 44.59476 25.69290 5374 ft 271 kts 115°
2026-05-07 22:11 44.58752 25.71711 4923 ft 267 kts 115°
2026-05-07 22:11 44.58038 25.74099 4428 ft 264 kts 114°
2026-05-07 22:11 44.57333 25.76463 3953 ft 261 kts 114°
2026-05-07 22:12 44.56659 25.78739 3515 ft 246 kts 113°
2026-05-07 22:12 44.56204 25.80983 3197 ft 231 kts 101°
2026-05-07 22:12 44.56118 25.82431 3077 ft 219 kts 91°
2026-05-07 22:12 44.56168 25.85148 2827 ft 205 kts 88°
2026-05-07 22:13 44.56185 25.86472 2728 ft 196 kts 89°
2026-05-07 22:13 44.56213 25.88362 2562 ft 191 kts 89°
2026-05-07 22:13 44.56259 25.90195 2428 ft 185 kts 86°
2026-05-07 22:13 44.56378 25.92511 2214 ft 171 kts 84°
2026-05-07 22:14 44.56444 25.93626 2090 ft 170 kts 84°
2026-05-07 22:14 44.56561 25.95303 1847 ft 175 kts 82°
2026-05-07 22:14 44.56743 25.96996 1670 ft 175 kts 78°
2026-05-07 22:14 44.56914 25.98671 1474 ft 174 kts 81°
2026-05-07 22:15 44.57041 26.00360 1276 ft 174 kts 82°
2026-05-07 22:15 44.57166 26.02024 1159 ft 170 kts 83°
2026-05-07 22:15 44.57297 26.03642 978 ft 162 kts 82°
2026-05-07 22:15 44.57411 26.05147 774 ft 149 kts 83°
2026-05-07 22:16 44.57513 26.06558 580 ft 143 kts 81°
2026-05-07 22:16 44.57625 26.07940 408 ft 140 kts 82°
2026-05-07 22:16 44.57723 26.09208 315 ft 104 kts 82°
2026-05-07 22:16 44.57753 26.09493 316 ft 0 kts 82°